| time (UTC) | temp F | wind direction | speed MPH | gust MPH | rain 1hr in | rain 24hr in | rain mn in | humidity % | barometer mb |
| 20260901205025 | 96 | 174 | 8.0 | 15.0 | 0.00 | 0.00 | 0.00 | 37 | 1014.5 |
| 20260901204524 | 96 | 173 | 8.0 | 15.0 | 0.00 | 0.00 | 0.00 | 38 | 1014.6 |
| 20260901203521 | 96 | 133 | 9.0 | 15.0 | 0.00 | 0.00 | 0.00 | 37 | 1014.7 |
| 20260901203025 | 97 | 94 | 8.0 | 12.0 | 0.00 | 0.00 | 0.00 | 37 | 1014.7 |
| 20260901202022 | 97 | 115 | 11.0 | 16.0 | 0.00 | 0.00 | 0.00 | 37 | 1014.8 |
| 20260901201523 | 96 | 192 | 9.0 | 19.0 | 0.00 | 0.00 | 0.00 | 38 | 1014.9 |
| 20260901200523 | 95 | 208 | 6.0 | 16.0 | 0.00 | 0.00 | 0.00 | 38 | 1015.1 |
| 20260901200021 | 96 | 128 | 7.0 | 16.0 | 0.00 | 0.00 | 0.00 | 38 | 1015.1 |
| 20260901195521 | 96 | 87 | 7.0 | 17.0 | 0.00 | 0.00 | 0.00 | 39 | 1015.1 |
| 20260901195021 | 95 | 99 | 17.0 | 18.0 | 0.00 | 0.00 | 0.00 | 39 | 1015.1 |
| 20260901194521 | 96 | 145 | 6.0 | 18.0 | 0.00 | 0.00 | 0.00 | 39 | 1015.2 |
| 20260901194020 | 97 | 123 | 16.0 | 18.0 | 0.00 | 0.00 | 0.00 | 38 | 1015.1 |
| 20260901193020 | 94 | 77 | 8.0 | 16.0 | 0.00 | 0.00 | 0.00 | 40 | 1015.3 |
| 20260901192520 | 94 | 99 | 9.0 | 16.0 | 0.00 | 0.00 | 0.00 | 40 | 1015.4 |
| 20260901191520 | 96 | 165 | 3.0 | 15.0 | 0.00 | 0.00 | 0.00 | 38 | 1015.5 |
| 20260901190520 | 95 | 150 | 7.0 | 13.0 | 0.00 | 0.00 | 0.00 | 38 | 1015.7 |
| 20260901190020 | 97 | 174 | 9.0 | 13.0 | 0.00 | 0.00 | 0.00 | 35 | 1015.7 |
| 20260901185520 | 96 | 140 | 7.0 | 12.0 | 0.00 | 0.00 | 0.00 | 38 | 1015.8 |
| 20260901185020 | 95 | 259 | 3.0 | 16.0 | 0.00 | 0.00 | 0.00 | 39 | 1015.8 |
| 20260901184520 | 95 | 172 | 13.0 | 16.0 | 0.00 | 0.00 | 0.00 | 38 | 1015.9 |
| 20260901184020 | 95 | 94 | 9.0 | 15.0 | 0.00 | 0.00 | 0.00 | 40 | 1016.1 |
| 20260901183520 | 96 | 127 | 15.0 | 15.0 | 0.00 | 0.00 | 0.00 | 40 | 1016.1 |
| 20260901183021 | 94 | 132 | 3.0 | 12.0 | 0.00 | 0.00 | 0.00 | 42 | 1016.3 |
| 20260901182520 | 94 | 93 | 7.0 | 15.0 | 0.00 | 0.00 | 0.00 | 41 | 1016.3 |
| 20260901182019 | 94 | 229 | 9.0 | 16.0 | 0.00 | 0.00 | 0.00 | 41 | 1016.3 |
| 20260901181519 | 94 | 148 | 10.0 | 16.0 | 0.00 | 0.00 | 0.00 | 42 | 1016.4 |
| 20260901180019 | 94 | 144 | 15.0 | 16.0 | 0.00 | 0.00 | 0.00 | 41 | 1016.6 |
| 20260901175520 | 95 | 121 | 11.0 | 15.0 | 0.00 | 0.00 | 0.00 | 41 | 1016.6 |
| 20260901175019 | 94 | 130 | 8.0 | 14.0 | 0.00 | 0.00 | 0.00 | 43 | 1016.8 |
| 20260901174519 | 94 | 155 | 9.0 | 14.0 | 0.00 | 0.00 | 0.00 | 44 | 1016.8 |
| 20260901174019 | 93 | 208 | 9.0 | 14.0 | 0.00 | 0.00 | 0.00 | 44 | 1016.9 |
| 20260901173519 | 94 | 124 | 9.0 | 14.0 | 0.00 | 0.00 | 0.00 | 43 | 1016.9 |
| 20260901173019 | 94 | 94 | 11.0 | 17.0 | 0.00 | 0.00 | 0.00 | 44 | 1017.0 |
| 20260901172519 | 93 | 152 | 3.0 | 17.0 | 0.00 | 0.00 | 0.00 | 45 | 1017.1 |
| 20260901171519 | 93 | 220 | 9.0 | 11.0 | 0.00 | 0.00 | 0.00 | 44 | 1017.2 |
| 20260901171019 | 93 | 226 | 5.0 | 13.0 | 0.00 | 0.00 | 0.00 | 45 | 1017.3 |
| 20260901170019 | 93 | 249 | 6.0 | 12.0 | 0.00 | 0.00 | 0.00 | 45 | 1017.4 |
| 20260901165519 | 94 | 153 | 9.0 | 10.0 | 0.00 | 0.00 | 0.00 | 45 | 1017.4 |
| 20260901165019 | 93 | 112 | 3.0 | 11.0 | 0.00 | 0.00 | 0.00 | 46 | 1017.4 |
| 20260901164519 | 93 | 102 | 9.0 | 11.0 | 0.00 | 0.00 | 0.00 | 46 | 1017.5 |
| 20260901164019 | 92 | 211 | 2.0 | 9.0 | 0.00 | 0.00 | 0.00 | 46 | 1017.5 |
| 20260901163519 | 91 | 144 | 7.0 | 12.0 | 0.00 | 0.00 | 0.00 | 48 | 1017.5 |
| 20260901162519 | 92 | 137 | 6.0 | 10.0 | 0.00 | 0.00 | 0.00 | 47 | 1017.6 |
| 20260901161519 | 91 | 213 | 8.0 | 14.0 | 0.00 | 0.00 | 0.00 | 48 | 1017.6 |
| 20260901161019 | 91 | 228 | 6.0 | 13.0 | 0.00 | 0.00 | 0.00 | 49 | 1017.7 |
| 20260901160519 | 91 | 187 | 8.0 | 13.0 | 0.00 | 0.00 | 0.00 | 49 | 1017.6 |
| 20260901160019 | 91 | 249 | 7.0 | 12.0 | 0.00 | 0.00 | 0.00 | 50 | 1017.6 |
| 20260901155519 | 90 | 169 | 4.0 | 12.0 | 0.00 | 0.00 | 0.00 | 50 | 1017.6 |
| 20260901155018 | 91 | 204 | 7.0 | 10.0 | 0.00 | 0.00 | 0.00 | 50 | 1017.6 |
| 20260901154548 | 90 | 207 | 8.0 | 10.0 | 0.00 | 0.00 | 0.00 | 51 | 1017.7 |
| 20260901154018 | 90 | 199 | 7.0 | 10.0 | 0.00 | 0.00 | 0.00 | 51 | 1017.6 |
| 20260901153518 | 90 | 192 | 4.0 | 10.0 | 0.00 | 0.00 | 0.00 | 52 | 1017.6 |
| 20260901153019 | 89 | 201 | 5.0 | 11.0 | 0.00 | 0.00 | 0.00 | 53 | 1017.5 |
| 20260901152518 | 89 | 160 | 6.0 | 11.0 | 0.00 | 0.00 | 0.00 | 53 | 1017.5 |
| 20260901152018 | 89 | 221 | 11.0 | 11.0 | 0.00 | 0.00 | 0.00 | 54 | 1017.5 |
| 20260901151518 | 89 | 138 | 6.0 | 10.0 | 0.00 | 0.00 | 0.00 | 55 | 1017.6 |
| 20260901151018 | 89 | 242 | 5.0 | 11.0 | 0.00 | 0.00 | 0.00 | 55 | 1017.6 |
| 20260901150518 | 88 | 289 | 2.0 | 11.0 | 0.00 | 0.00 | 0.00 | 56 | 1017.6 |
| 20260901150018 | 87 | 232 | 5.0 | 12.0 | 0.00 | 0.00 | 0.00 | 57 | 1017.6 |
| 20260901145518 | 87 | 225 | 9.0 | 12.0 | 0.00 | 0.00 | 0.00 | 57 | 1017.6 |
| 20260901145018 | 87 | 199 | 5.0 | 10.0 | 0.00 | 0.00 | 0.00 | 58 | 1017.7 |
| 20260901144518 | 87 | 220 | 9.0 | 10.0 | 0.00 | 0.00 | 0.00 | 57 | 1017.7 |
| 20260901144019 | 87 | 183 | 5.0 | 9.0 | 0.00 | 0.00 | 0.00 | 57 | 1017.7 |
| 20260901143518 | 87 | 223 | 6.0 | 9.0 | 0.00 | 0.00 | 0.00 | 58 | 1017.7 |
| 20260901143018 | 86 | 190 | 8.0 | 9.0 | 0.00 | 0.00 | 0.00 | 58 | 1017.7 |
| 20260901142018 | 85 | 233 | 6.0 | 8.0 | 0.00 | 0.00 | 0.00 | 59 | 1017.7 |
| 20260901141518 | 85 | 141 | 3.0 | 8.0 | 0.00 | 0.00 | 0.00 | 60 | 1017.7 |
| 20260901140518 | 85 | 227 | 8.0 | 9.0 | 0.00 | 0.00 | 0.00 | 60 | 1017.7 |
| 20260901140017 | 84 | 179 | 5.0 | 8.0 | 0.00 | 0.00 | 0.00 | 61 | 1017.6 |
| 20260901135518 | 84 | 224 | 3.0 | 7.0 | 0.00 | 0.00 | 0.00 | 61 | 1017.6 |
| 20260901135017 | 84 | 198 | 4.0 | 6.0 | 0.00 | 0.00 | 0.00 | 62 | 1017.6 |
| 20260901134517 | 83 | 191 | 4.0 | 7.0 | 0.00 | 0.00 | 0.00 | 62 | 1017.6 |
| 20260901134017 | 82 | 165 | 3.0 | 7.0 | 0.00 | 0.00 | 0.00 | 63 | 1017.6 |
| 20260901133517 | 82 | 214 | 6.0 | 6.0 | 0.00 | 0.00 | 0.00 | 63 | 1017.5 |
| 20260901133018 | 82 | 191 | 4.0 | 6.0 | 0.00 | 0.00 | 0.00 | 64 | 1017.5 |
| 20260901132517 | 81 | 193 | 4.0 | 6.0 | 0.00 | 0.00 | 0.00 | 65 | 1017.5 |
| 20260901132017 | 81 | 176 | 5.0 | 6.0 | 0.00 | 0.00 | 0.00 | 66 | 1017.5 |
| 20260901131517 | 81 | 180 | 6.0 | 6.0 | 0.00 | 0.00 | 0.00 | 67 | 1017.5 |
| 20260901131017 | 80 | 193 | 5.0 | 5.0 | 0.00 | 0.00 | 0.00 | 68 | 1017.4 |
| 20260901130517 | 80 | 178 | 5.0 | 6.0 | 0.00 | 0.00 | 0.00 | 68 | 1017.5 |
| 20260901130017 | 79 | 131 | 4.0 | 6.0 | 0.00 | 0.00 | 0.00 | 69 | 1017.5 |
| 20260901125518 | 79 | 121 | 5.0 | 6.0 | 0.00 | 0.00 | 0.00 | 70 | 1017.4 |
| 20260901125017 | 78 | 128 | 5.0 | 5.0 | 0.00 | 0.00 | 0.00 | 70 | 1017.4 |
| 20260901124517 | 78 | 226 | 3.0 | 6.0 | 0.00 | 0.00 | 0.00 | 71 | 1017.3 |
| 20260901124017 | 78 | 146 | 3.0 | 6.0 | 0.00 | 0.00 | 0.00 | 71 | 1017.2 |
| 20260901123517 | 78 | 127 | 5.0 | 6.0 | 0.00 | 0.00 | 0.00 | 70 | 1017.2 |
| 20260901122517 | 78 | 166 | 4.0 | 6.0 | 0.00 | 0.00 | 0.00 | 70 | 1017.0 |
| 20260901122017 | 78 | 150 | 3.0 | 6.0 | 0.00 | 0.00 | 0.00 | 71 | 1016.9 |
| 20260901121017 | 77 | 99 | 5.0 | 6.0 | 0.00 | 0.00 | 0.00 | 72 | 1016.9 |
| 20260901120517 | 77 | 81 | 5.0 | 6.0 | 0.00 | 0.00 | 0.00 | 72 | 1016.9 |
| 20260901120016 | 78 | 73 | 5.0 | 5.0 | 0.00 | 0.00 | 0.00 | 69 | 1016.9 |
| 20260901115017 | 78 | 130 | 4.0 | 6.0 | 0.00 | 0.00 | 0.00 | 69 | 1016.8 |
| 20260901114016 | 78 | 251 | 6.0 | 7.0 | 0.00 | 0.00 | 0.00 | 69 | 1016.6 |
| 20260901113516 | 78 | 255 | 6.0 | 7.0 | 0.00 | 0.00 | 0.00 | 70 | 1016.6 |
| 20260901113016 | 78 | 252 | 5.0 | 7.0 | 0.00 | 0.00 | 0.00 | 70 | 1016.5 |
| 20260901112516 | 78 | 240 | 6.0 | 9.0 | 0.00 | 0.00 | 0.00 | 71 | 1016.5 |
| 20260901112016 | 78 | 241 | 5.0 | 9.0 | 0.00 | 0.00 | 0.00 | 70 | 1016.5 |
| 20260901111516 | 78 | 248 | 7.0 | 9.0 | 0.00 | 0.00 | 0.00 | 70 | 1016.4 |
| 20260901110516 | 79 | 247 | 8.0 | 8.0 | 0.00 | 0.00 | 0.00 | 69 | 1016.5 |
| 20260901105516 | 79 | 241 | 5.0 | 7.0 | 0.00 | 0.00 | 0.00 | 68 | 1016.5 |
| 20260901105016 | 80 | 255 | 6.0 | 7.0 | 0.00 | 0.00 | 0.00 | 67 | 1016.5 |
| 20260901104516 | 80 | 256 | 6.0 | 7.0 | 0.00 | 0.00 | 0.00 | 67 | 1016.5 |
| 20260901104016 | 80 | 257 | 6.0 | 7.0 | 0.00 | 0.00 | 0.00 | 66 | 1016.5 |
| 20260901103515 | 80 | 247 | 6.0 | 7.0 | 0.00 | 0.00 | 0.00 | 66 | 1016.5 |
| 20260901103016 | 80 | 244 | 6.0 | 6.0 | 0.00 | 0.00 | 0.00 | 65 | 1016.4 |
| 20260901102515 | 80 | 234 | 6.0 | 7.0 | 0.00 | 0.00 | 0.00 | 64 | 1016.5 |
| 20260901102015 | 80 | 212 | 6.0 | 7.0 | 0.00 | 0.00 | 0.00 | 64 | 1016.5 |
| 20260901101515 | 80 | 210 | 7.0 | 7.0 | 0.00 | 0.00 | 0.00 | 63 | 1016.5 |
| 20260901101015 | 80 | 206 | 6.0 | 7.0 | 0.00 | 0.00 | 0.00 | 63 | 1016.5 |
| 20260901100515 | 80 | 205 | 6.0 | 6.0 | 0.00 | 0.00 | 0.00 | 63 | 1016.5 |
| 20260901095515 | 80 | 199 | 5.0 | 6.0 | 0.00 | 0.00 | 0.00 | 63 | 1016.5 |
| 20260901095015 | 80 | 193 | 5.0 | 7.0 | 0.00 | 0.00 | 0.00 | 62 | 1016.5 |
| 20260901094515 | 80 | 178 | 6.0 | 7.0 | 0.00 | 0.00 | 0.00 | 62 | 1016.5 |
| 20260901094015 | 80 | 197 | 5.0 | 5.0 | 0.00 | 0.00 | 0.00 | 62 | 1016.6 |
| 20260901093515 | 80 | 177 | 4.0 | 6.0 | 0.00 | 0.00 | 0.00 | 63 | 1016.6 |
| 20260901092515 | 80 | 170 | 6.0 | 7.0 | 0.00 | 0.00 | 0.00 | 62 | 1016.6 |
| 20260901092015 | 80 | 151 | 5.0 | 7.0 | 0.00 | 0.00 | 0.00 | 62 | 1016.6 |
| 20260901091514 | 80 | 166 | 6.0 | 8.0 | 0.00 | 0.00 | 0.00 | 61 | 1016.6 |
| 20260901091014 | 81 | 143 | 5.0 | 9.0 | 0.00 | 0.00 | 0.00 | 61 | 1016.5 |
| 20260901085514 | 81 | 143 | 7.0 | 9.0 | 0.00 | 0.00 | 0.00 | 60 | 1016.5 |
| 20260901085015 | 81 | 144 | 7.0 | 8.0 | 0.00 | 0.00 | 0.00 | 60 | 1016.5 |
| 20260901084514 | 81 | 133 | 6.0 | 7.0 | 0.00 | 0.00 | 0.00 | 60 | 1016.4 |
| 20260901084014 | 81 | 144 | 7.0 | 8.0 | 0.00 | 0.00 | 0.00 | 59 | 1016.4 |
| 20260901083515 | 81 | 137 | 5.0 | 8.0 | 0.00 | 0.00 | 0.00 | 59 | 1016.4 |
| 20260901083014 | 81 | 140 | 7.0 | 7.0 | 0.00 | 0.00 | 0.00 | 59 | 1016.4 |
| 20260901082515 | 81 | 129 | 6.0 | 8.0 | 0.00 | 0.00 | 0.00 | 59 | 1016.3 |
| 20260901082015 | 81 | 136 | 7.0 | 8.0 | 0.00 | 0.00 | 0.00 | 59 | 1016.2 |
| 20260901081514 | 82 | 129 | 7.0 | 8.0 | 0.00 | 0.00 | 0.00 | 59 | 1016.2 |
| 20260901081014 | 82 | 129 | 8.0 | 8.0 | 0.00 | 0.00 | 0.00 | 58 | 1016.1 |
| 20260901080514 | 82 | 123 | 6.0 | 7.0 | 0.00 | 0.00 | 0.00 | 58 | 1016.1 |
| 20260901080014 | 82 | 119 | 6.0 | 7.0 | 0.00 | 0.00 | 0.00 | 58 | 1016.1 |
| 20260901075514 | 82 | 125 | 7.0 | 7.0 | 0.00 | 0.00 | 0.00 | 58 | 1016.1 |
| 20260901075015 | 81 | 115 | 5.0 | 7.0 | 0.00 | 0.00 | 0.00 | 58 | 1016.1 |
| 20260901074014 | 80 | 78 | 4.0 | 5.0 | 0.00 | 0.00 | 0.00 | 58 | 1016.1 |
| 20260901073514 | 81 | 71 | 4.0 | 7.0 | 0.00 | 0.00 | 0.00 | 57 | 1016.1 |
| 20260901072013 | 82 | 101 | 5.0 | 6.0 | 0.00 | 0.00 | 0.00 | 56 | 1016.2 |
| 20260901071514 | 81 | 96 | 5.0 | 6.0 | 0.00 | 0.00 | 0.00 | 57 | 1016.2 |
| 20260901070513 | 81 | 84 | 5.0 | 7.0 | 0.00 | 0.00 | 0.00 | 56 | 1016.1 |
| 20260901070013 | 81 | 81 | 6.0 | 7.0 | 0.00 | 0.00 | 0.00 | 55 | 1016.1 |
| 20260901065513 | 82 | 79 | 5.0 | 8.0 | 0.00 | 0.00 | 0.00 | 54 | 1016.1 |
| 20260901064513 | 82 | 95 | 6.0 | 7.0 | 0.00 | 0.00 | 0.00 | 53 | 1016.0 |
| 20260901064013 | 83 | 105 | 5.0 | 6.0 | 0.00 | 0.00 | 0.00 | 52 | 1016.0 |
| 20260901063514 | 83 | 103 | 5.0 | 5.0 | 0.00 | 0.00 | 0.00 | 53 | 1016.0 |
| 20260901063013 | 82 | 102 | 5.0 | 8.0 | 0.00 | 0.00 | 0.00 | 53 | 1016.0 |
| 20260901062514 | 81 | 76 | 3.0 | 10.0 | 0.00 | 0.00 | 0.00 | 53 | 1016.0 |
| 20260901062014 | 82 | 56 | 6.0 | 10.0 | 0.00 | 0.00 | 0.00 | 52 | 1016.1 |
| 20260901061013 | 83 | 35 | 5.0 | 6.0 | 0.00 | 0.00 | 0.00 | 49 | 1015.8 |
| 20260901060513 | 83 | 29 | 5.0 | 6.0 | 0.00 | 0.00 | 0.00 | 48 | 1015.7 |
| 20260901060013 | 83 | 33 | 5.0 | 6.0 | 0.00 | 0.00 | 0.00 | 48 | 1015.7 |
| 20260901055513 | 83 | 37 | 5.0 | 7.0 | 0.00 | 0.00 | 0.00 | 47 | 1015.7 |
| 20260901055013 | 83 | 36 | 5.0 | 12.0 | 0.00 | 0.00 | 0.00 | 48 | 1015.7 |
| 20260901054513 | 83 | 62 | 7.0 | 12.0 | 0.00 | 0.00 | 0.00 | 47 | 1015.7 |
| 20260901054013 | 85 | 74 | 8.0 | 8.0 | 0.00 | 0.00 | 0.00 | 45 | 1015.6 |
| 20260901053513 | 86 | 200 | 3.0 | 4.0 | 0.00 | 0.00 | 0.00 | 44 | 1015.5 |
| 20260901053013 | 86 | 191 | 3.0 | 4.0 | 0.00 | 0.00 | 0.00 | 44 | 1015.4 |
| 20260901052513 | 86 | 183 | 4.0 | 4.0 | 0.00 | 0.00 | 0.00 | 43 | 1015.4 |
| 20260901052013 | 86 | 180 | 4.0 | 5.0 | 0.00 | 0.00 | 0.00 | 43 | 1015.3 |
| 20260901051513 | 86 | 185 | 4.0 | 5.0 | 0.00 | 0.00 | 0.00 | 43 | 1015.3 |
| 20260901051013 | 86 | 164 | 5.0 | 6.0 | 0.00 | 0.00 | 0.00 | 43 | 1015.3 |
| 20260901050513 | 86 | 163 | 5.0 | 6.0 | 0.00 | 0.00 | 0.00 | 42 | 1015.3 |
| 20260901050013 | 86 | 169 | 5.0 | 7.0 | 0.00 | 0.00 | 0.00 | 42 | 1015.3 |
| 20260901045513 | 87 | 165 | 6.0 | 7.0 | 0.00 | 0.00 | 0.00 | 42 | 1015.3 |
| 20260901045013 | 87 | 164 | 6.0 | 7.0 | 0.00 | 0.00 | 0.00 | 42 | 1015.3 |
| 20260901044012 | 87 | 164 | 6.0 | 7.0 | 0.00 | 0.00 | 0.00 | 42 | 1015.2 |
| 20260901043513 | 87 | 145 | 6.0 | 6.0 | 0.00 | 0.00 | 0.00 | 42 | 1015.1 |
| 20260901043012 | 87 | 135 | 5.0 | 6.0 | 0.00 | 0.00 | 0.00 | 42 | 1015.1 |
| 20260901042512 | 87 | 140 | 5.0 | 5.0 | 0.00 | 0.00 | 0.00 | 42 | 1015.1 |
| 20260901042012 | 86 | 126 | 4.0 | 5.0 | 0.00 | 0.00 | 0.00 | 42 | 1015.1 |
| 20260901041512 | 86 | 117 | 4.0 | 4.0 | 0.00 | 0.00 | 0.00 | 43 | 1015.2 |
| 20260901040512 | 85 | 86 | 3.0 | 4.0 | 0.00 | 0.00 | 0.00 | 44 | 1015.3 |
| 20260901040013 | 86 | 45 | 3.0 | 4.0 | 0.00 | 0.00 | 0.00 | 44 | 1015.3 |
| 20260901035513 | 86 | 93 | 3.0 | 4.0 | 0.00 | 0.00 | 0.00 | 43 | 1015.3 |
| 20260901035013 | 85 | 91 | 4.0 | 5.0 | 0.00 | 0.00 | 0.00 | 43 | 1015.3 |
| 20260901033512 | 88 | 119 | 4.0 | 5.0 | 0.00 | 0.00 | 0.00 | 40 | 1015.2 |
| 20260901033013 | 88 | 152 | 5.0 | 5.0 | 0.00 | 0.00 | 0.00 | 40 | 1015.2 |
| 20260901032512 | 89 | 162 | 4.0 | 5.0 | 0.00 | 0.00 | 0.00 | 40 | 1015.2 |
| 20260901032013 | 89 | 167 | 4.0 | 5.0 | 0.00 | 0.00 | 0.00 | 40 | 1015.1 |
| 20260901031012 | 89 | 182 | 4.0 | 4.0 | 0.00 | 0.00 | 0.00 | 39 | 1015.1 |
| 20260901030512 | 89 | 176 | 3.0 | 4.0 | 0.00 | 0.00 | 0.00 | 39 | 1015.1 |
| 20260901030013 | 89 | 190 | 4.0 | 4.0 | 0.00 | 0.00 | 0.00 | 40 | 1015.0 |
| 20260901025513 | 88 | 199 | 4.0 | 4.0 | 0.00 | 0.00 | 0.00 | 40 | 1015.0 |
| 20260901025013 | 88 | 206 | 4.0 | 4.0 | 0.00 | 0.00 | 0.00 | 40 | 1014.9 |
| 20260901024512 | 88 | 193 | 3.0 | 5.0 | 0.00 | 0.00 | 0.00 | 40 | 1014.9 |
| 20260901023512 | 90 | 211 | 5.0 | 7.0 | 0.00 | 0.00 | 0.00 | 38 | 1014.8 |
| 20260901023012 | 90 | 157 | 5.0 | 6.0 | 0.00 | 0.00 | 0.00 | 37 | 1014.7 |
| 20260901022512 | 90 | 144 | 5.0 | 7.0 | 0.00 | 0.00 | 0.00 | 37 | 1014.6 |
| 20260901022012 | 90 | 133 | 6.0 | 7.0 | 0.00 | 0.00 | 0.00 | 37 | 1014.6 |
| 20260901021012 | 90 | 133 | 5.0 | 6.0 | 0.00 | 0.00 | 0.00 | 37 | 1014.5 |
| 20260901020514 | 90 | 123 | 5.0 | 5.0 | 0.00 | 0.00 | 0.00 | 37 | 1014.5 |
| 20260901015512 | 89 | 123 | 5.0 | 7.0 | 0.00 | 0.00 | 0.00 | 38 | 1014.3 |
| 20260901015013 | 90 | 110 | 5.0 | 7.0 | 0.00 | 0.00 | 0.00 | 38 | 1014.3 |
| 20260901014011 | 90 | 131 | 6.0 | 7.0 | 0.00 | 0.00 | 0.00 | 37 | 1014.2 |
| 20260901013513 | 91 | 133 | 5.0 | 6.0 | 0.00 | 0.00 | 0.00 | 37 | 1014.1 |
| 20260901013011 | 91 | 140 | 6.0 | 6.0 | 0.00 | 0.00 | 0.00 | 37 | 1014.1 |
| 20260901012512 | 91 | 122 | 5.0 | 6.0 | 0.00 | 0.00 | 0.00 | 37 | 1014.1 |
| 20260901011011 | 92 | 131 | 5.0 | 7.0 | 0.00 | 0.00 | 0.00 | 35 | 1014.0 |
| 20260901010511 | 92 | 137 | 7.0 | 8.0 | 0.00 | 0.00 | 0.00 | 35 | 1014.0 |
| 20260901005511 | 93 | 130 | 6.0 | 7.0 | 0.00 | 0.00 | 0.00 | 34 | 1014.0 |
| 20260901004511 | 94 | 137 | 6.0 | 9.0 | 0.00 | 0.00 | 0.00 | 33 | 1014.0 |
| 20260901004011 | 94 | 141 | 5.0 | 8.0 | 0.00 | 0.00 | 0.00 | 33 | 1013.9 |
| 20260901003013 | 95 | 152 | 8.0 | 11.0 | 0.00 | 0.00 | 0.00 | 32 | 1013.9 |
| 20260901002512 | 95 | 145 | 8.0 | 11.0 | 0.00 | 0.00 | 0.00 | 32 | 1013.9 |
| 20260901001511 | 95 | 139 | 9.0 | 16.0 | 0.00 | 0.00 | 0.00 | 32 | 1013.9 |
| 20260901001011 | 96 | 135 | 13.0 | 16.0 | 0.00 | 0.00 | 0.00 | 32 | 1013.8 |
| 20260901000510 | 96 | 142 | 9.0 | 13.0 | 0.00 | 0.00 | 0.00 | 32 | 1013.9 |
| 20260901000011 | 96 | 145 | 9.0 | 14.0 | 0.00 | 0.00 | 0.00 | 32 | 1013.8 |
| 20260831235510 | 96 | 144 | 11.0 | 14.0 | 0.00 | 0.00 | 0.00 | 31 | 1013.7 |
| 20260831235010 | 96 | 174 | 11.0 | 15.0 | 0.00 | 0.00 | 0.00 | 31 | 1013.8 |
| 20260831234540 | 96 | 144 | 12.0 | 15.0 | 0.00 | 0.00 | 0.00 | 31 | 1013.8 |
| 20260831233510 | 96 | 201 | 9.0 | 15.0 | 0.00 | 0.00 | 0.00 | 30 | 1013.9 |
| 20260831233010 | 97 | 170 | 10.0 | 15.0 | 0.00 | 0.00 | 0.00 | 30 | 1013.8 |
| 20260831232540 | 97 | 164 | 15.0 | 16.0 | 0.00 | 0.00 | 0.00 | 30 | 1013.7 |
| 20260831231510 | 97 | 168 | 15.0 | 17.0 | 0.00 | 0.00 | 0.00 | 30 | 1013.7 |
| 20260831231010 | 98 | 154 | 14.0 | 17.0 | 0.00 | 0.00 | 0.00 | 30 | 1013.7 |
| 20260831230510 | 98 | 163 | 11.0 | 14.0 | 0.00 | 0.00 | 0.00 | 29 | 1013.8 |
| 20260831230010 | 98 | 155 | 8.0 | 16.0 | 0.00 | 0.00 | 0.00 | 30 | 1013.8 |
| 20260831225510 | 98 | 184 | 9.0 | 16.0 | 0.00 | 0.00 | 0.00 | 30 | 1013.9 |
| 20260831225009 | 97 | 182 | 7.0 | 11.0 | 0.00 | 0.00 | 0.00 | 30 | 1013.9 |
| 20260831224510 | 97 | 208 | 9.0 | 16.0 | 0.00 | 0.00 | 0.00 | 30 | 1014.0 |
| 20260831224009 | 97 | 191 | 11.0 | 17.0 | 0.00 | 0.00 | 0.00 | 30 | 1014.0 |
| 20260831223510 | 98 | 195 | 15.0 | 17.0 | 0.00 | 0.00 | 0.00 | 29 | 1014.0 |
| 20260831223009 | 97 | 156 | 9.0 | 17.0 | 0.00 | 0.00 | 0.00 | 30 | 1014.1 |
| 20260831222509 | 98 | 134 | 15.0 | 15.0 | 0.00 | 0.00 | 0.00 | 29 | 1014.0 |
| 20260831222009 | 98 | 176 | 5.0 | 13.0 | 0.00 | 0.00 | 0.00 | 28 | 1014.1 |
| 20260831221509 | 98 | 191 | 13.0 | 19.0 | 0.00 | 0.00 | 0.00 | 28 | 1014.1 |
| 20260831221009 | 98 | 151 | 11.0 | 19.0 | 0.00 | 0.00 | 0.00 | 29 | 1014.2 |
| 20260831220509 | 99 | 151 | 14.0 | 15.0 | 0.00 | 0.00 | 0.00 | 30 | 1014.2 |
| 20260831220009 | 99 | 183 | 12.0 | 15.0 | 0.00 | 0.00 | 0.00 | 29 | 1014.2 |
| 20260831215509 | 98 | 135 | 11.0 | 16.0 | 0.00 | 0.00 | 0.00 | 29 | 1014.2 |
| 20260831215009 | 98 | 165 | 7.0 | 16.0 | 0.00 | 0.00 | 0.00 | 29 | 1014.3 |
| 20260831214509 | 98 | 163 | 12.0 | 20.0 | 0.00 | 0.00 | 0.00 | 28 | 1014.4 |
| 20260831213509 | 97 | 134 | 7.0 | 16.0 | 0.00 | 0.00 | 0.00 | 31 | 1014.4 |
| 20260831213008 | 98 | 171 | 11.0 | 17.0 | 0.00 | 0.00 | 0.00 | 29 | 1014.5 |
| 20260831212009 | 98 | 129 | 11.0 | 20.0 | 0.00 | 0.00 | 0.00 | 28 | 1014.6 |
| 20260831211508 | 98 | 178 | 11.0 | 20.0 | 0.00 | 0.00 | 0.00 | 28 | 1014.5 |
| 20260831211008 | 98 | 164 | 13.0 | 17.0 | 0.00 | 0.00 | 0.00 | 29 | 1014.6 |
| 20260831210508 | 98 | 122 | 15.0 | 17.0 | 0.00 | 0.00 | 0.00 | 27 | 1014.6 |
| 20260831205508 | 98 | 210 | 11.0 | 16.0 | 0.00 | 0.00 | 0.00 | 28 | 1014.8 |